Location: Harwich
(41.7160°N, 69.9939°W)
Time: 12:50:44
(UTC+01:00)

A-11 Canister half - Pass Details

Date: 05 December 2023
Orbit: 1526 x 1682 km, 47.3° (Epoch: 01 March)

Event Time Altitude Azimuth Distance (km) Brightness Sun altitude
Rises 07:37:28 0° 297° (WNW) 4,891 - -57.1°
Reaches altitude 10° 07:40:49 10° 292° (WNW) 3,883 - -56.6°
Maximum altitude 07:49:58 45° 224° (SW) 2,082 - -55.0°
Drops below altitude 10° 07:58:50 10° 155° (SSE) 3,754 - -53.5°
Exits shadow 08:01:27 - 150° (SSE) 4,536 11.5 -53.0°
Sets 08:02:02 0° 149° (SSE) 4,716 11.7 -52.9°
